Location: Stoke Bliss
(52.2667°N, 2.5167°W)
Time: 19:12:27
(UTC+00:00)

FALCON 9 DEB - Pass Details

Date: 03 March 2021
Orbit: 370 x 390 km, 53.0° (Epoch: 17 April)

Event Time Altitude Azimuth Distance (km) Brightness Sun altitude
Rises 18:14:49 0° 260° (W) 2,304 9.7 -4.1°
Reaches altitude 10° 18:16:53 10° 261° (W) 1,448 7.7 -4.4°
Maximum altitude 18:20:08 85° 348° (NNW) 407 3.0 -4.9°
Drops below altitude 10° 18:23:23 10° 79° (E) 1,451 5.1 -5.4°
Enters shadow 18:23:56 - 80° (E) 1,675 5.4 -5.5°
